Regional Weather Roundup
Issued by NWS Newport/Morehead, NC

Current Version | Previous Version | Graphics & Text | Print | Product List | Glossary Off
Versions: 1 2 3 4 5 6 7 8 9 10 11 12 13 14 15 16 17 18 19 20 21 22 23 24 25 26 27 28 29 30 31 32 33 34 35 36 37 38 39 40 41 42 43 44 45 46 47 48 49 50

000
ASUS42 KMHX 212113
RWRMHX
WEATHER ROUNDUP FOR EASTERN NORTH CAROLINA
NATIONAL WEATHER SERVICE NEWPORT/MOREHEAD CITY NC
500 PM EDT FRI JUL 21 2017

NOTE: "FAIR" INDICATES FEW OR NO CLOUDS BELOW 12,000 FEET
WITH NO SIGNIFICANT WEATHER AND/OR OBSTRUCTIONS TO VISIBILITY

NCZ015>017-031-032-045>047-102-103-212200-
NORTH COAST

CITY           SKY/WX    TMP DP  RH WIND       PRES   REMARKS
EDENTON        PTSUNNY   88  73  60 CALM      29.93F
ELIZABETH CITY LGT RAIN  86  74  67 SW12G25   29.93S
KITTY HAWK     CLEAR     89  77  66 S3        29.93S HX 101
MANTEO         CLOUDY    87  79  76 S13G18    29.95S HX 101

$$

NCZ045>047-081-094-103-104-212200-
CENTRAL COAST

CITY           SKY/WX    TMP DP  RH WIND       PRES   REMARKS
FRISCO         SUNNY     85  77  77 SW8       29.98S

$$

NCZ095-097-098-100-101-212200-
SOUTHERN COAST

CITY           SKY/WX    TMP DP  RH WIND       PRES   REMARKS
BEAUFORT       SUNNY     86  78  77 SW15      29.98S
CEDAR ISLAND   NOT AVBL
JACKSONVILLE   SUNNY     90  75  61 S12G20    29.96S HX 100
PINEY ISLAND   FLURRIES N/A N/A N/A SW17      29.96F
WILMINGTON     SUNNY     91  74  57 S13       29.97F HX 100


$$

NCZ011>013-027>030-043-044-078>080-089-090>093-098-212200-
COASTAL PLAIN

CITY           SKY/WX    TMP DP  RH WIND       PRES   REMARKS
AHOSKIE          N/A     89  78  71 CALM      29.93S HX 103
CLINTON        SUNNY     94  75  53 SW5       29.95F HX 104
ELIZABETHTOWN  NOT AVBL
GOLDSBORO      SUNNY     96  73  48 SW10      29.92F HX 105
GREENVILLE     SUNNY     95  72  46 W7        29.95F HX 103
HAVELOCK       MOSUNNY   90  73  57 S13       29.97S
KENANSVILLE    MOSUNNY   93  72  49 SW6       29.94F HX 100
KINSTON        MOSUNNY   97  70  41 S8        29.94F HX 103
NEW BERN       MOSUNNY   91  79  67 S10       29.96F HX 107
RICHLANDS      SUNNY     93  77  59 S10       29.96F HX 107
ROCKY MOUNT    PTSUNNY   88  74  63 W12G22    29.94F
WASHINGTON     SUNNY     94  74  51 S13       29.93F HX 103
WHITEVILLE     SUNNY     94  72  48 S7        29.96F HX 101

$$

AMZ130-135-150-152-154-156-158-170-250-252-270-ANZ085-086-088-633-658-670-212200-
MARINE OBSERVATIONS

STATION/POSITION TIME  TEMP    WIND        PRES    WAVE   SWELL
                       AIR SEA DIR/SP/G            HT/PER HT/PER
                 (UTC) (F)     (DEG/KT/KT) (MB)    (FT/S) (FT/S)
CHESAPEAKE LIGHT NOT AVBL
64 E VA BEACH    2050   81 81  210/ 14/ 16 1014.0    3/ 7   2/ 7
DUCK             2048   83 61  160/  6/  8 1013.3
2 E DUCK         2100      70                N/A     2/11   2/11
OREGON INLET     2036   85 86  190/ 18/ 20 1014.2
13E OREGON INLT  2048      81                N/A     3/11   2/11
HATTERAS CG      2048   83 81  220/ 10/ 15 1014.9
DIAMOND BUOY     2050   83 85  230/ 16/ 19 1014.9    4/ 8   2/ 8
CAPE LOOKOUT     2100   83     210/ 13/ 18 1015.0
BEAUFORT LAB     2048   84 81  210/ 12/ 16 1014.7
30 SE NEW RVR IN 2008   82 82  230/ 14/ 16 1015.9
30 SE NEW RVR IN 2043      82                N/A     3/ 8
27 SE WRIGHTSVLE 2008   82 82  220/ 14/ 17 1015.9
5 SE WRIGHTSVLE  2008   82 82  200/ 12/ 17 1015.4
225 S CAPE HAT   2050   83 84  200/ 10/ 12 1018.1    3/ 9   3/ 9
41 SE CHARLESTON 2050   83 84  200/ 10/ 12 1015.8    2/ 8   2/ 8

$$




USA.gov is the U.S. government's official web portal to all federal, state and local government web resources and services.